Location: Newark
(56.0692°N, 115.8617°E)
Time: 07:50:33
(UTC+00:00)

deb Explorer IX - Visible Passes

Search period start: 26 May 2020 00:00
Search period end: 05 June 2020 00:00
Orbit: 545 x 1101 km, 38.8° (Epoch: 22 May)

Date Brightness Start Highest point End Pass type
(mag) Time Alt. Az. Time Alt. Az. Time Alt. Az.
26 May ? 14:19:05 10° SSW 14:21:33 13° S 14:23:17 12° SSE visible
27 May ? 13:56:46 10° SSW 13:58:56 12° S 14:01:13 10° SSE visible
27 May ? 15:42:22 10° SSW 15:42:56 11° SSW 15:42:56 11° SSW visible
28 May ? 15:20:09 10° SSW 15:21:12 11° SSW 15:21:12 11° SSW visible
29 May ? 14:58:05 10° SSW 14:59:15 11° S 14:59:24 11° S visible
